Location: Fort Lauderdale
(26.1220°N, 80.1440°W)
Time: 14:03:54
(UTC-04:00)

Tiangong 2 - Visible Passes

Search period start: 22 March 2019 00:00
Search period end: 01 April 2019 00:00
Orbit: 379 x 390 km, 42.8° (Epoch: 22 March)

Date Brightness Start Highest point End Pass type
(mag) Time Alt. Az. Time Alt. Az. Time Alt. Az.
22 Mar 2.5 06:53:46 10° NW 06:56:45 36° NNE 06:59:43 10° ESE visible
23 Mar 3.5 05:55:32 14° N 05:57:09 19° NNE 05:59:32 10° ENE visible
24 Mar 1.0 06:31:36 12° NW 06:34:30 86° NNE 06:37:41 10° SE visible
25 Mar 2.8 05:35:34 33° ENE 05:35:34 33° ENE 05:37:57 10° ESE visible
26 Mar 1.6 06:11:59 36° SW 06:12:10 36° SW 06:15:07 10° SSE visible
26 Mar 3.4 21:02:20 10° SSW 21:03:06 15° SSW 21:03:06 15° SSW visible
27 Mar 3.0 20:03:55 10° S 20:05:50 15° SE 20:07:31 11° ESE visible
27 Mar 4.3 21:39:26 10° WSW 21:39:49 13° W 21:39:49 13° W visible
28 Mar 0.9 20:39:42 10° SW 20:42:49 90° SSW 20:44:06 32° NE visible
29 Mar 3.4 21:17:46 10° WNW 21:20:08 20° NNW 21:20:30 19° NNW visible
30 Mar 2.4 20:17:33 10° WSW 20:20:29 37° NNW 20:23:26 10° NE visible
31 Mar 4.1 20:56:46 10° NW 20:57:58 12° NNW 20:59:12 10° N visible
